Overview Statistics Trail Chart Weather Telemetry Raw packets
 

This is the latest recevied weather packets stored in our database for station/object N7WSS. If no packets are shown the sender has not sent any weather packets the latest 10 day(s).

<< 111 112 113 114 >>
Time Temp. Humidity Pressure Rain* Wind** Luminosity Snow
1787787378 41.11° C 23% 1010.7 hPa 0 mm - - -
1787787078 41.11° C 23% 1010.8 hPa 0 mm - - -
1787786778 41.11° C 23% 1010.8 hPa 0 mm - - -
1787786473 41.11° C 23% 1010.7 hPa 0 mm - - -
1787786168 41.11° C 23% 1010.8 hPa 0 mm - - -
1787785864 41.11° C 23% 1010.7 hPa 0 mm - - -
1787785559 41.67° C 23% 1010.9 hPa 0 mm - - -
1787785254 42.22° C 21% 1011.1 hPa 0 mm - - -
1787784953 42.22° C 21% 1011.1 hPa 0 mm - - -
1787784653 42.22° C 21% 1010.8 hPa 0 mm - - -
1787784352 42.78° C 20% 1010.8 hPa 0 mm - - -
1787784047 42.22° C 21% 1011.1 hPa 0 mm - - -
1787783743 41.67° C 19% 1010.9 hPa 0 mm - - -
1787783443 41.67° C 19% 1010.9 hPa 0 mm - - -
1787783138 42.22° C 19% 1010.9 hPa 0 mm - - -
1787782834 42.22° C 19% 1011.2 hPa 0 mm - - -
1787782533 42.22° C 18% 1011.4 hPa 0 mm - - -
1787782228 42.22° C 19% 1011.1 hPa 0 mm - - -
1787781925 42.22° C 19% 1011.4 hPa 0 mm - - -
1787781625 43.33° C 19% 1011.5 hPa 0 mm - - -
1787781322 42.78° C 19% 1011.7 hPa 0 mm - - -
1787781021 42.78° C 19% 1011.7 hPa 0 mm - - -
1787780715 42.78° C 19% 1011.6 hPa 0 mm - - -

* Rain latest hour (hover to see other rain measurements)
** Current wind speed in m/s (hover to see current wind gust speed)